User: anonymous   Login
Location: Branche des Alpilles
(43.6087°N, 4.6976°E)
Time: 22:48:46
(UTC+00:00)
Language:

Meteor 1-5 Rocket - Orbit

View from above orbital plane
View from above orbital plane
View from above satellite
View from above satellite

Ground track
Ground track

The orbit data is extracted from the following two-line orbital elements,

1  4420U 70047B   21059.57885224 -.00000155  00000-0 -88230-4 0  9994
2  4420  81.2272  90.2415 0087434   4.4584 355.7346 14.12092600609368
Epoch (UTC): 28 February 2021 13:53:32
Eccentricity: 0.0087434
inclination: 81.2272°
perigee height: 789 km
apogee height: 915 km
right ascension of ascending node: 90.2415°
argument of perigee: 4.4584°
revolutions per day: 14.12092600
mean anomaly at epoch: 355.7346°
orbit number at epoch: 60936

The dashed part of the orbit path shows where the satellite is in the earth's shadow,  

DLR